Regional Weather Roundup
Issued by NWS

Home | Current Version | Previous Version | Text Only | Print | Product List | Glossary Off
Versions: 1 2 3 4 5 6 7 8 9 10 11 12 13 14 15 16 17 18 19 20 21 22 23 24 25 26 27 28 29 30 31 32 33 34 35 36 37 38 39 40 41 42 43 44 45 46 47 48 49 50

000
ASUS43 KBIS 190559
RWRND

NORTH DAKOTA REGIONAL WEATHER ROUNDUP
NATIONAL WEATHER SERVICE BISMARCK ND
1200 AM CST FRI DEC 19 2014

NOTE: "FAIR" INDICATES FEW OR NO CLOUDS BELOW 12,000 FEET WITH NO
SIGNIFICANT WEATHER AND/OR OBSTRUCTIONS TO VISIBILITY.


NDZ001>003-009>011-017-190700-
NORTHWEST NORTH DAKOTA

CITY           SKY/WX    TMP DP  RH WIND       PRES   REMARKS
WILLISTON      FOG       28  26  92 S3        29.93R VSB 1/2
6HR MIN TEMP:  28; 6HR MAX TEMP:  29;

MINOT          CLOUDY    25  22  88 E3        29.95F FOG
MINOT AFB      CLOUDY    23  23 100 SE7       29.95F FOG     WCI  15
$$

NDZ018>021-031>035-040>046-190700-
SOUTHWEST NORTH DAKOTA

CITY           SKY/WX    TMP DP  RH WIND       PRES   REMARKS
BISMARCK       CLOUDY    27  25  92 S5        30.01R
6HR MIN TEMP:  26; 6HR MAX TEMP:  28;

GARRISON         N/A     30  28  92 S5        29.94F
6HR MIN TEMP:  26; 6HR MAX TEMP:  30;

HETTINGER ARPT MOCLDY    24  21  88 CALM      29.96S
$$

NDZ004>008-012>016-024-026-027-054-190700-
NORTHEAST NORTH DAKOTA

CITY           SKY/WX    TMP DP  RH WIND       PRES   REMARKS
GRAND FORKS    CLOUDY    20  16  84 S12       30.14F WCI   8
GRND FRKS AFB  CLOUDY    19  19 100 S12       30.13F WCI   7
DEVILS LAKE    CLOUDY    21  16  79 S12       30.02S WCI   9
$$

NDZ022-023-025-028>030-036>039-047>053-190700-
SOUTHEAST NORTH DAKOTA

CITY           SKY/WX    TMP DP  RH WIND       PRES   REMARKS
FARGO          LGT SNOW  22  17  81 SE13      30.16F WCI  10
6HR MIN TEMP:  20; 6HR MAX TEMP:  22; 6HR PCP: TRACE;

$$



USA.gov is the U.S. government's official web portal to all federal, state and local government web resources and services.